Flag for U.S.A. Weather past 2 weeks in Racine, Wisconsin, U.S.A.

Now
69 °F

Sunny.


Feels Like: 69 °F
Forecast: 62 / 80 °F
Wind: 5 mph from West

Location: Batten International Airport

Current Time: Aug 20, 2014 at 8:50:01 AM

Latest Report: Aug 20, 2014 at 7:53 AM


Visibility: 10 mi

Pressure: 29.85 "Hg

Humidity: 84%

Dew point: 64 °F

Location of RacineLocation

Historic Weather in Racine — Graph

°F

Racine temperature yesterday

Maximum temperature yesterday: 82 °F (at 12:53 PM)
Minimum temperature yesterday: 66 °F (at 1:53 AM)
Average temperature yesterday: 73 °F

Past Weeks' High & Low Weather Summary

 TemperatureHumidityPressure
High83 °F (Aug 16, 1:53 PM)96% (Aug 11, 6:53 AM)30.16 "Hg (Aug 11, 6:53 AM)
Low54 °F (Aug 14, 10:53 PM)38% (Aug 14, 2:53 PM)29.67 "Hg (Aug 19, 1:53 PM)
Average68 °F75%29.99 "Hg
* Reported Aug 5 7:53 AM — Aug 20 7:53 AM, Racine, Weather by CustomWeather, © 2014

Note: Actual official high and low records may vary slightly from our data, if they occured in-between our weather recording intervals... More about our weather records

Advertising

Racine weather history for previous 24 hours

 ConditionsComfort  
Time TempWeatherWind HumidityBarometerVisibility
7:53 AM
Aug 20
69 °FSunny.5 mph84%29.85 "Hg10 mi
6:53 AM66 °FClear.No wind87%29.83 "Hg10 mi
5:53 AM65 °FClear.3 mph91%29.82 "Hg10 mi
4:53 AM66 °FClear.5 mph87%29.81 "Hg10 mi
3:53 AM66 °FClear.6 mph87%29.80 "Hg10 mi
2:53 AM67 °FClear.5 mph87%29.78 "Hg10 mi
1:53 AM67 °FClear.5 mph90%29.78 "Hg10 mi
12:53 AM68 °FClear.5 mph90%29.78 "Hg10 mi
11:53 PM
Aug 19
68 °FClear.6 mph93%29.77 "Hg8 mi
10:53 PM69 °FClear.5 mph90%29.76 "Hg8 mi
9:53 PM70 °FClear.3 mph90%29.76 "Hg9 mi
8:53 PM71 °FPassing clouds.No wind84%29.75 "Hg10 mi
7:53 PM73 °FPassing clouds.No wind79%29.72 "Hg10 mi
6:53 PM76 °FPartly sunny.5 mph74%29.72 "Hg10 mi
5:53 PM78 °FPartly sunny.8 mph69%29.71 "Hg10 mi
4:53 PM82 °FPassing clouds.8 mph63%29.69 "Hg10 mi
3:53 PM74 °FCloudy.3 mph79%29.68 "Hg10 mi
2:53 PM81 °FPassing clouds.9 mph62%29.68 "Hg10 mi
1:53 PM81 °FBroken clouds.13 mph65%29.67 "Hg10 mi
12:53 PM82 °FBroken clouds.13 mph65%29.68 "Hg10 mi
11:53 AM80 °FPassing clouds.10 mph69%29.70 "Hg10 mi
10:53 AM76 °FMostly cloudy.10 mph82%29.70 "Hg8 mi
10:00 AM74 °FFog.10 mph88%29.72 "Hg6 mi
8:53 AM72 °FCloudy.7 mph91%29.71 "Hg8 mi
Weather by CustomWeather, © 2014

See weather overviewHow to use our weather pages